Home   Weather   Al-Jamiliyah   Past weeks

Flag for Qatar Past Weather in Al-Jamiliyah, Qatar — Yesterday and Last 2 Weeks

Now
70 °F

Passing clouds.


Feels Like: 70 °F
Forecast: 63 / 73 °F
Wind: 12 mph from Northwest

Location: Doha International Airport

Current Time: Dec 11, 2016 at 3:15:36 pm

Latest Report: Dec 11, 2016 at 2:00 pm


Visibility: N/A

Pressure: 30.04 "Hg

Humidity: 31%

Dew Point: 37 °F

Location of Al-JamiliyahLocation

Past Weather in Al-Jamiliyah — Graph

°F

Al-Jamiliyah Temperature Yesterday

Maximum temperature yesterday: 70 °F (at 10:00 am)
Minimum temperature yesterday: 61 °F (at 8:00 pm)
Average temperature yesterday: 66 °F

High & Low Weather Summary for the Past Weeks

 TemperatureHumidityPressure
High90 °F (Dec 3, 12:00 pm)100% (Dec 3, 3:00 am)30.15 "Hg (Dec 3, 3:00 am)
Low57 °F (Dec 11, 1:00 am)16% (Dec 10, 3:00 pm)29.95 "Hg (Dec 6, 1:00 pm)
Average74 °F70%30.06 "Hg
* Reported Nov 26 1:00 pm — Dec 11 1:00 pm, Al-Jamiliyah, Weather by CustomWeather, © 2016

Note: Actual official high and low records may vary slightly from our data, if they occured in-between our weather recording intervals... More about our weather records

Advertising

Al-Jamiliyah Weather History for the Previous 24 Hours

Scroll right to see more
 ConditionsComfort  
Time TempWeatherWind HumidityBarometerVisibility
1:00 pm
Sun, Dec 11
70 °FPassing clouds.13 mph33%30.04 "HgN/A
12:00 pm70 °FSunny.13 mph33%30.07 "Hg10 mi
11:00 am68 °FSunny.10 mph46%30.09 "Hg10 mi
10:00 am68 °FPassing clouds.10 mph46%30.12 "HgN/A
9:00 am64 °FSunny.8 mph49%30.12 "Hg10 mi
8:00 am61 °FPassing clouds.10 mph52%30.12 "HgN/A
7:00 am59 °FPassing clouds.9 mph51%30.09 "HgN/A
6:00 am59 °FPassing clouds.9 mph55%30.09 "HgN/A
5:00 am59 °FPassing clouds.7 mph59%30.07 "HgN/A
4:00 am59 °FPassing clouds.8 mph59%30.07 "HgN/A
3:00 am59 °FPassing clouds.9 mph55%30.07 "HgN/A
2:00 am59 °FPassing clouds.6 mph51%30.07 "HgN/A
1:00 am57 °FPassing clouds.6 mph59%30.07 "HgN/A
12:00 am59 °FPassing clouds.7 mph55%30.07 "HgN/A
11:00 pm
Sat, Dec 10
61 °FPassing clouds.7 mph55%30.07 "HgN/A
10:00 pm61 °FClear.9 mph55%30.09 "Hg10 mi
9:00 pm61 °FPassing clouds.7 mph59%30.09 "HgN/A
8:00 pm61 °FPassing clouds.10 mph55%30.09 "HgN/A
7:00 pm63 °FPassing clouds.12 mph56%30.09 "HgN/A
6:00 pm63 °FPassing clouds.12 mph49%30.09 "HgN/A
5:00 pm64 °FClear.10 mph37%30.07 "Hg10 mi
4:00 pm66 °FSunny.15 mph18%30.07 "Hg10 mi
3:00 pm68 °FPassing clouds.14 mph16%30.04 "HgN/A
Weather by CustomWeather, © 2016

See weather overviewHow to use our weather pages